Location: Wangen+im+Allg�u
(47.7098°N, 9.8383°E)
Time: 07:08:31
(UTC+02:00)

ISS - Pass Details

Date: 25 May 2018
Orbit: 402 x 406 km, 51.6° (Epoch: 19 June)

Event Time Altitude Azimuth Distance (km) Brightness Sun altitude
Rises 23:32:36 0° 278° (W) 2,321 0.5 -17.3°
Reaches altitude 10° 23:34:46 10° 287° (WNW) 1,461 -0.4 -17.4°
Maximum altitude 23:37:52 39° 358° (N) 620 -2.4 -17.7°
Drops below altitude 10° 23:40:59 10° 70° (ENE) 1,460 -1.1 -17.9°
Enters shadow 23:42:04 - 75° (ENE) 1,886 -0.5 -18.0°
